Volver al catálogo

STARLINK-36168

ActivoComunicacionesSSO
NORAD 68677·PAYLOAD·🇺🇸 United States

Lanzado Apr 11, 2026 desde Vandenberg Space Force Base

Loading…

Próximos Pases (próximas 24 horas)

TLE

ActualizadoSource: CelesTrak SupGP

Época: Sep 14, 2026, 22:41 UTC

1 68677C 26077R   26257.94562500  .00056282  00000+0  17477-2 0  2576
2 68677  97.2845 127.9362 0001742  96.2287 240.3241 15.33400521    10

Sigue STARLINK-36168 en tiempo real con AllMySat

Download on the App Store